GFSSE_500_rhum_132.txt.gz
RH
6 6 5 5 5 6 5 4 7 8 3 3 4 4 4 4 5 6 6 6 7 7 6 4 4 4 6 8 10 12 14 18 19 22 22 20 21 24 30 40 65 64 96
4 7 5 6 5 4 3 3 5 10 8 3 3 5 5 4 5 5 6 6 7 7 8 5 4 4 5 7 10 14 18 17 17 18 24 25 22 20 25 65 66 88 91
6 6 7 8 4 3 4 5 7 10 11 7 4 4 5 5 4 5 6 6 7 7 8 7 6 3 4 8 10 11 11 10 14 22 22 36 44 57 48 56 59 75 74
8 8 5 5 4 4 9 6 10 13 12 13 7 4 4 5 4 4 5 6 6 7 7 8 8 5 4 6 9 13 14 16 16 21 28 76 53 43 67 67 76 74 86
5 6 6 6 4 11 21 11 8 11 13 13 14 11 5 4 5 5 5 5 5 6 7 8 7 6 4 5 6 9 13 17 20 24 56 95 69 51 75 78 89 95 94
3 4 5 4 5 13 23 27 14 9 10 11 14 16 12 6 4 4 5 6 5 5 6 8 8 8 4 4 5 7 10 20 24 43 55 60 57 68 61 60 68 77 88
8 5 4 5 9 12 22 27 23 15 15 14 13 16 16 15 7 4 4 5 5 5 6 7 8 8 8 6 5 5 7 12 22 36 32 45 53 49 45 46 53 83 95
14 8 6 8 6 8 23 26 23 18 18 20 20 21 20 18 14 7 4 5 5 5 6 6 7 8 8 8 6 5 5 10 20 41 32 20 31 38 38 49 74 68 85
25 23 21 19 16 17 24 25 24 23 21 21 24 24 23 22 20 14 7 5 6 5 6 6 6 7 9 9 8 6 5 6 15 51 24 22 29 33 30 45 70 87 83
19 23 30 28 22 22 25 25 24 23 24 25 26 26 25 24 23 21 17 8 6 7 7 8 7 5 7 9 10 8 7 6 10 10 28 21 34 35 23 34 60 83 94
21 23 31 39 35 26 24 25 21 21 24 26 25 28 28 24 21 22 22 17 7 7 9 11 25 11 6 7 10 9 9 8 15 14 61 36 16 27 21 36 57 85 96
26 28 28 32 36 29 24 25 22 21 22 24 25 28 32 29 24 20 23 22 15 10 18 15 12 27 14 6 8 10 10 10 14 15 33 35 9 14 15 20 53 78 94
20 26 25 29 28 30 25 24 23 22 21 22 25 26 26 25 23 20 20 32 31 30 16 10 8 9 9 6 6 11 14 10 20 16 21 14 12 8 11 23 44 53 60
10 18 26 27 30 27 33 27 24 21 20 21 24 26 24 21 22 25 22 24 28 39 35 31 26 14 11 9 14 9 10 21 25 18 26 15 18 13 11 16 24 28 26
9 13 23 22 32 32 30 30 27 20 18 18 20 23 23 22 23 25 26 22 26 29 32 32 40 34 15 14 17 15 12 6 11 17 27 20 21 22 12 8 15 13 16
10 8 12 28 32 31 50 61 30 28 20 19 18 20 21 22 24 22 21 19 23 28 28 29 38 54 53 33 20 16 14 10 8 8 12 20 32 27 15 12 23 30 25
27 14 9 9 34 39 39 63 59 43 29 17 19 17 19 21 24 22 21 24 20 23 27 29 30 34 36 33 22 21 17 27 23 19 9 8 19 28 20 15 15 15 28
32 35 28 10 13 21 34 40 66 54 34 20 20 18 19 20 24 27 26 25 25 21 22 28 33 32 31 23 24 20 19 20 23 26 29 30 23 18 26 22 14 13 10
16 20 25 29 17 10 9 43 44 60 59 33 28 22 18 22 28 28 28 28 26 28 25 28 30 32 31 30 21 19 19 21 21 18 25 22 21 19 27 24 29 35 37
8 11 14 20 22 16 11 10 51 51 66 49 31 28 20 24 29 32 34 31 31 31 30 30 32 31 36 35 34 24 19 21 21 20 19 20 19 15 12 13 20 24 29
4 6 7 6 17 18 12 10 30 72 83 67 50 35 29 27 34 35 40 38 35 39 38 34 34 34 42 42 42 39 29 20 23 25 27 24 23 22 20 14 14 16 18
2 2 2 5 6 13 12 10 10 24 83 74 72 66 43 25 34 42 41 43 39 38 41 40 37 41 50 51 44 45 44 32 23 27 28 32 28 27 26 22 17 15 18
14 3 1 1 4 5 12 11 10 6 18 96 61 74 36 24 26 46 40 42 45 43 44 47 50 55 58 55 56 57 53 52 30 30 31 40 47 30 29 27 20 15 13
29 30 30 7 2 3 4 10 13 7 7 71 42 84 59 28 22 33 30 40 44 48 46 53 63 65 60 60 66 68 63 56 47 38 35 43 74 48 34 32 28 24 15
32 37 30 24 28 2 3 5 10 12 7 39 83 70 74 32 38 24 50 56 53 56 55 45 66 68 62 67 72 78 76 69 59 44 37 34 64 68 38 37 35 32 28
27 30 31 24 9 17 4 4 6 11 10 17 73 99 59 55 37 49 73 64 61 66 69 53 50 62 65 67 59 65 72 67 97 89 61 76 87 60 41 43 46 36 28

GFSSE_500_rhum_135.txt.gz
RH
13 13 9 6 5 5 5 5 4 4 5 8 6 3 4 5 5 5 6 6 7 6 6 6 5 4 3 3 6 10 12 19 22 28 31 30 29 25 25 29 74 64 66
7 13 7 6 6 5 5 4 3 3 4 6 8 5 3 5 5 5 6 6 7 7 6 6 6 4 6 8 4 7 10 10 13 20 24 38 33 36 45 48 48 69 68
6 17 9 7 7 7 5 3 4 4 4 6 8 9 4 4 5 5 6 6 6 7 7 7 6 6 5 3 4 6 8 11 14 20 29 39 44 45 43 54 71 83 87
6 10 20 14 7 6 4 5 7 6 5 6 8 11 10 4 4 5 5 6 6 6 7 7 7 4 4 3 4 4 7 10 16 21 27 69 74 52 50 64 70 89 94
7 4 5 8 7 6 4 8 19 13 7 6 6 7 12 12 5 4 5 5 6 6 6 7 8 7 6 4 4 4 5 11 19 30 52 65 58 70 64 62 66 70 76
12 7 4 4 5 5 4 6 18 26 20 15 12 7 8 12 14 7 4 4 5 6 6 7 8 8 7 6 5 4 5 6 18 42 55 36 44 57 44 46 55 55 66
19 17 12 8 5 4 5 6 15 26 26 21 17 16 12 12 15 15 10 4 4 5 6 6 7 8 8 7 7 6 5 6 13 28 52 38 29 32 43 48 51 80 78
21 26 27 21 11 5 5 7 13 24 26 22 17 18 17 19 19 18 15 9 5 5 5 6 8 8 8 9 9 8 5 5 15 16 63 36 22 32 45 31 47 75 84
16 18 26 32 32 22 18 17 17 25 26 24 21 19 20 20 21 21 19 15 9 5 5 5 8 9 8 8 10 10 8 7 7 19 32 23 17 36 38 24 46 72 84
16 24 22 22 29 32 28 25 23 26 25 25 24 25 23 23 23 22 22 22 19 9 6 7 7 9 9 7 8 10 9 8 8 23 47 60 23 18 24 23 38 69 100
15 17 25 22 26 30 38 35 30 27 26 23 22 26 26 27 28 24 21 21 22 18 8 7 9 13 21 15 7 7 10 9 10 29 23 32 33 7 12 16 17 61 87
13 16 20 23 19 22 26 36 40 30 26 23 21 23 26 26 32 30 26 22 21 23 17 10 17 16 15 13 13 6 7 9 15 28 17 16 13 11 8 9 18 51 81
11 11 14 24 25 26 29 30 32 33 27 25 22 21 24 26 27 28 25 21 18 30 28 29 33 28 14 8 9 7 7 14 19 21 42 29 16 14 13 10 13 13 22
18 14 11 10 20 35 90 52 31 35 30 23 22 22 21 24 24 22 21 25 24 25 26 34 32 31 32 31 13 11 15 12 11 22 23 15 21 17 16 13 9 11 6
39 26 16 20 9 12 28 87 80 46 32 37 24 20 18 21 24 22 22 23 27 24 26 31 30 33 38 43 34 18 16 16 18 23 9 16 17 15 19 14 12 17 27
41 47 35 15 17 13 8 14 59 63 61 54 49 20 18 19 21 23 23 23 25 22 23 27 28 29 33 41 46 37 31 23 16 20 19 19 12 9 16 15 15 14 17
29 32 40 40 29 15 10 10 14 63 71 86 53 41 18 17 18 20 22 23 24 25 23 22 24 23 29 32 26 26 23 29 17 17 22 20 22 27 25 20 17 17 13
24 24 23 27 32 37 35 13 8 10 64 56 97 55 28 17 15 17 20 23 25 27 27 23 22 22 30 34 32 31 25 24 20 18 22 24 29 32 24 21 24 24 24
12 14 16 16 17 22 28 36 18 10 14 57 38 76 55 30 21 16 20 26 27 25 30 28 26 25 25 27 30 34 33 28 22 20 19 19 17 18 18 19 15 13 12
7 5 5 6 8 9 14 21 27 21 10 16 53 70 96 68 28 26 20 27 31 27 31 33 31 29 29 31 31 33 38 39 37 26 20 21 23 26 23 24 20 16 13
3 5 5 4 4 4 6 9 16 22 19 10 21 82 97 97 59 38 23 27 31 34 33 33 36 35 33 34 30 36 44 46 44 42 35 24 24 27 30 28 26 24 20
8 12 7 3 3 2 3 4 7 13 21 17 13 34 62 93 82 50 20 19 32 38 39 36 38 40 39 38 35 35 50 50 52 51 50 40 26 28 30 40 33 27 26
31 25 23 19 21 20 6 2 4 6 11 21 16 13 49 89 99 64 18 25 36 36 45 43 42 42 40 40 42 41 46 54 56 61 60 58 49 37 31 45 58 35 31
28 30 26 13 11 30 26 22 4 4 6 12 21 13 19 34 89 96 76 32 39 34 47 50 47 48 45 42 41 46 49 61 68 64 69 62 56 51 45 43 56 61 37
25 14 27 30 23 18 18 32 33 5 4 6 15 18 12 22 75 98 96 72 33 46 56 59 55 50 50 55 54 59 47 45 59 56 59 68 86 86 69 86 93 78 50
23 15 18 40 35 38 38 41 25 22 4 5 10 17 12 26 44 76 94 90 60 50 61 68 65 54 55 59 58 50 56 53 65 54 53 63 70 70 94 76 78 94 84

GFSSE_500_rhum_138.txt.gz
RH
12 14 12 13 11 8 5 5 5 4 4 4 4 6 6 3 4 5 6 6 6 6 6 5 6 4 4 10 7 8 7 10 12 14 28 35 42 41 39 46 45 48 64
12 11 10 10 10 8 6 5 6 4 4 4 4 4 6 6 3 5 5 6 6 6 6 6 6 6 9 4 7 6 10 9 10 14 19 26 35 40 43 48 61 68 77
7 8 8 20 14 9 6 7 5 5 6 6 6 6 6 9 5 4 5 5 6 6 6 6 6 6 5 4 3 3 5 9 8 13 19 33 59 52 54 48 60 64 76
8 6 6 8 10 15 14 8 5 6 8 9 7 6 6 8 10 5 4 5 5 6 6 6 7 7 6 5 4 4 4 6 8 12 20 42 47 54 60 56 64 66 75
12 10 11 7 5 5 7 7 6 5 17 20 19 16 12 9 7 11 6 4 4 5 5 6 7 8 8 7 6 5 4 5 5 8 20 42 34 49 53 49 48 44 46
14 15 12 10 7 9 4 4 4 4 12 24 27 24 21 18 14 10 14 9 5 4 5 6 6 8 9 8 7 6 6 5 5 10 24 54 26 22 28 35 33 32 65
15 18 23 20 16 12 8 6 4 5 8 19 28 27 21 18 16 14 14 15 9 5 5 5 5 7 9 9 9 9 7 5 6 11 18 55 37 25 25 38 18 40 64
17 19 26 30 29 28 23 11 5 5 7 15 26 28 23 20 18 16 17 17 14 8 6 6 5 6 8 9 9 9 9 7 6 6 18 27 21 23 37 40 18 41 59
22 25 24 25 25 29 28 26 20 15 14 15 25 27 25 23 21 20 21 21 19 15 8 6 6 5 7 8 8 8 10 8 8 8 30 31 48 18 20 24 16 27 66
22 26 24 24 23 20 20 23 26 25 22 22 25 27 26 26 26 24 24 22 22 22 17 7 7 7 6 8 9 6 8 10 9 9 21 20 46 22 8 11 14 14 63
15 16 17 24 26 22 22 24 22 29 30 26 26 29 27 25 27 27 28 24 21 23 21 12 7 9 10 17 20 16 10 8 10 10 20 15 20 15 11 8 10 13 38
20 18 15 15 16 16 22 29 32 30 35 38 33 28 27 24 25 26 30 30 26 21 23 21 11 12 14 10 8 9 11 7 8 10 19 21 30 16 13 12 11 14 14
46 43 36 20 12 13 18 13 21 37 31 40 42 31 29 25 23 26 28 30 27 21 25 32 28 30 32 29 24 17 9 9 7 22 20 24 28 17 18 14 14 10 14
45 45 48 47 37 16 11 13 35 48 44 36 37 39 33 29 24 25 26 25 24 24 23 28 32 37 32 31 35 34 22 13 16 15 20 20 24 20 21 18 15 12 14
39 38 35 40 46 45 17 12 22 42 33 78 77 40 39 27 26 23 24 25 23 21 25 26 28 32 30 33 35 39 46 28 20 18 14 13 9 15 14 15 19 14 14
12 18 22 27 31 34 47 27 12 22 56 62 92 84 41 45 33 24 21 23 24 23 24 26 24 31 30 30 30 32 42 40 26 27 19 17 23 22 18 27 22 26 17
13 11 19 22 19 26 29 40 42 15 12 48 66 99 94 76 52 27 24 20 23 23 22 23 21 22 26 28 29 29 28 28 23 24 22 19 19 21 26 35 27 22 25
12 13 14 14 19 18 20 25 28 41 30 14 21 47 99 94 87 56 25 20 21 23 22 23 25 22 22 25 28 30 27 29 31 27 20 19 19 21 20 21 18 18 15
9 10 11 10 9 11 13 16 20 24 33 37 24 24 52 98 95 88 49 26 24 23 21 27 26 24 23 24 25 28 28 29 34 38 36 27 21 22 21 23 26 23 20
11 10 9 8 6 6 5 7 11 16 21 24 33 40 44 43 91 97 73 41 29 25 24 24 28 25 28 26 26 29 30 28 30 41 44 41 36 26 24 25 28 31 29
5 3 3 3 3 3 3 4 4 5 9 15 20 28 41 47 72 96 97 78 51 27 30 31 33 21 27 32 29 29 34 34 32 44 46 45 48 49 37 25 28 32 36
3 3 3 7 19 14 13 7 3 3 4 5 10 16 26 30 42 52 81 95 70 28 35 33 34 32 31 31 30 33 32 34 42 45 50 57 58 60 61 50 34 31 46
9 15 24 26 24 22 16 13 15 14 7 4 5 9 15 24 44 56 97 95 94 34 31 31 40 36 35 37 33 24 25 36 43 53 56 60 64 59 66 62 50 42 42
15 18 22 19 22 16 12 10 17 19 18 10 4 6 8 15 28 72 86 70 84 89 49 23 33 39 39 36 40 32 27 30 41 52 62 58 67 62 58 73 82 73 80
13 16 16 25 26 21 29 29 29 34 22 13 9 4 6 8 16 46 38 24 68 92 94 65 36 35 37 42 39 41 35 27 33 45 53 56 59 73 60 66 71 84 98
14 15 27 35 25 22 36 34 36 42 38 23 12 7 4 6 8 17 40 28 97 96 95 77 61 51 38 48 46 46 45 41 39 38 47 57 59 76 78 69 68 85 96

GFSSE_500_rhum_141.txt.gz
RH
14 15 9 8 8 8 8 6 6 6 5 4 4 4 4 6 6 4 4 4 5 6 6 7 6 5 5 7 4 6 8 9 6 6 12 16 23 33 39 41 46 55 66
20 19 12 10 5 11 12 9 6 6 5 4 4 4 6 7 7 7 4 5 4 5 6 7 7 6 5 4 4 3 4 5 6 7 11 16 50 59 55 52 56 62 64
18 12 8 6 5 8 11 13 12 12 6 4 5 6 7 7 8 10 7 4 5 4 5 6 6 7 6 6 5 4 4 4 6 6 10 17 38 45 58 63 54 49 54
17 10 10 8 7 9 8 9 12 11 7 5 9 13 16 17 16 12 10 8 4 5 4 5 6 6 7 7 7 6 5 5 9 5 9 32 40 40 53 54 41 34 20
26 19 16 16 14 16 7 6 5 5 6 5 8 20 24 24 24 20 14 11 10 5 4 5 5 6 6 8 8 7 6 6 5 5 11 23 41 28 26 28 26 19 22
17 19 21 18 15 14 13 7 10 5 4 5 6 15 27 27 26 21 18 14 14 12 6 4 5 5 6 8 9 9 8 8 6 6 10 28 47 37 25 26 38 15 24
23 23 18 15 18 23 20 16 13 8 7 5 6 11 27 29 26 22 20 18 18 15 9 6 5 5 5 6 9 9 9 10 8 6 7 23 25 24 28 23 32 19 28
24 26 25 18 15 16 19 21 24 21 8 4 6 8 23 32 29 23 23 20 21 19 13 8 6 6 5 6 8 9 9 9 10 8 9 27 26 41 20 19 21 18 29
26 26 28 24 20 17 18 22 24 29 23 12 11 10 20 32 30 25 25 23 23 22 21 16 10 7 6 6 6 7 8 8 10 10 11 22 20 37 16 8 13 14 19
22 23 23 20 21 23 24 21 21 25 31 31 24 20 23 32 33 29 27 27 25 23 23 22 17 9 8 7 6 6 6 6 8 10 11 17 23 24 13 11 9 9 14
23 21 20 18 17 19 19 23 24 22 38 26 28 27 26 37 41 35 28 28 28 24 23 24 21 14 8 9 11 20 22 20 9 8 10 18 18 32 15 13 13 10 13
47 41 36 40 28 18 15 15 17 24 26 46 32 27 31 33 46 41 31 29 30 27 24 23 24 18 11 13 13 10 9 9 9 6 8 17 22 40 32 16 17 13 10
59 56 52 48 49 50 35 18 14 14 30 34 37 46 32 37 36 36 34 28 32 31 31 23 26 33 26 31 34 30 27 23 12 9 10 19 17 37 43 20 19 17 12
46 45 42 39 36 36 38 47 42 27 19 27 38 55 59 48 36 34 37 29 29 31 30 25 21 28 34 35 32 31 36 38 32 18 17 24 24 27 42 30 13 18 15
12 12 12 12 12 11 16 30 38 47 32 26 70 73 76 68 62 46 35 32 29 31 28 24 24 25 28 34 28 31 36 40 41 32 25 21 17 17 26 36 27 16 17
14 16 15 13 12 11 10 9 14 29 38 44 23 61 79 72 76 96 47 32 32 32 31 26 22 26 26 30 29 30 31 34 39 31 26 29 22 18 22 30 35 39 29
14 12 10 9 9 8 9 11 12 11 17 29 39 35 67 84 90 100 93 38 30 33 33 29 24 23 26 26 28 25 26 29 29 29 30 25 21 19 20 26 25 26 23
9 7 7 7 7 8 9 9 9 10 10 13 24 32 40 53 79 81 72 95 45 35 34 30 26 24 25 21 25 23 23 25 27 29 33 34 30 24 21 21 19 20 24
8 10 10 8 8 8 8 8 10 9 10 10 11 20 27 34 46 77 66 88 98 51 31 29 29 27 25 22 23 23 21 23 28 29 34 40 41 38 31 26 21 24 28
14 13 12 11 9 8 8 7 7 8 7 8 9 11 18 23 30 61 74 83 91 92 37 28 28 32 29 28 26 24 23 24 29 29 31 39 44 42 44 44 41 26 23
17 15 11 8 8 6 4 4 4 4 4 4 6 7 10 15 20 27 62 70 76 87 80 36 34 41 38 34 28 26 26 26 27 31 33 37 49 45 50 52 54 49 30
16 13 10 6 4 3 3 2 2 3 4 4 3 4 6 9 13 19 30 62 92 95 98 68 45 45 48 40 29 30 28 26 25 33 35 39 53 55 57 57 58 57 51
10 6 3 4 4 4 13 16 21 19 14 12 10 5 4 5 8 12 15 24 51 97 97 94 65 48 46 47 38 34 30 24 31 33 36 43 55 61 62 61 57 58 60
4 6 11 8 8 14 18 20 19 15 13 11 13 11 12 6 5 7 10 13 22 58 90 97 86 58 50 51 46 38 35 35 34 35 36 45 56 58 50 59 65 48 60
10 14 10 9 10 15 18 29 18 16 16 18 21 21 14 13 12 5 6 9 12 72 57 74 95 94 57 49 42 42 39 41 41 41 43 48 57 57 47 44 49 54 54
20 14 9 12 15 21 27 30 26 23 20 25 24 35 31 22 20 16 5 6 10 15 89 86 83 96 84 54 51 46 43 46 46 46 50 57 62 51 48 52 43 59 60

GFSSE_500_rhum_147.txt.gz
RH
19 17 16 16 15 12 9 8 9 8 10 12 10 9 7 6 6 7 7 8 8 6 5 5 6 6 7 7 7 6 4 4 4 5 5 6 18 32 38 40 51 52 53
21 20 19 18 16 15 14 11 10 10 9 9 11 12 8 7 7 13 16 17 16 10 6 5 5 6 6 7 8 8 6 5 5 6 6 8 15 26 43 36 46 52 50
19 19 19 18 18 18 22 19 16 15 12 12 8 8 9 7 6 12 20 21 21 20 14 8 5 5 6 6 7 8 8 6 6 6 5 8 14 31 41 37 35 32 27
22 31 30 30 29 26 26 25 22 18 15 15 13 7 7 7 6 7 13 17 21 24 18 14 10 5 5 5 6 7 9 8 7 7 6 8 10 32 39 36 26 28 28
40 38 42 39 41 28 21 18 18 18 18 15 12 10 11 6 7 6 7 13 23 25 20 16 15 11 6 6 6 6 9 9 9 8 7 8 9 30 30 34 32 32 25
28 30 32 35 35 33 31 20 16 16 22 21 19 16 12 7 6 6 8 12 23 23 24 19 17 14 9 6 6 6 8 9 10 9 9 8 12 35 38 44 30 30 29
31 34 39 39 38 36 35 32 24 19 17 18 19 22 21 15 11 6 9 13 18 23 23 22 20 18 13 8 6 6 6 9 9 10 9 8 14 31 44 51 26 25 27
34 38 41 40 34 28 29 26 26 27 24 19 21 32 25 35 21 6 7 12 19 23 23 24 21 20 19 14 9 7 6 7 8 9 9 9 13 25 41 48 32 22 19
48 49 43 38 42 42 35 27 29 34 32 28 24 28 59 33 40 23 11 9 15 24 25 25 24 23 23 20 15 8 7 7 7 7 9 9 11 19 36 47 36 23 19
57 55 45 30 28 28 24 22 22 22 29 36 39 35 43 46 67 34 34 25 18 22 27 26 26 26 25 24 22 16 9 8 6 7 7 8 9 15 26 42 47 25 15
46 45 40 36 38 38 34 29 25 21 20 22 26 33 33 34 43 81 56 31 30 25 26 28 26 26 26 24 23 20 11 10 13 20 21 16 9 13 28 43 44 28 20
61 56 46 52 55 56 56 54 51 48 47 50 48 43 40 22 16 28 35 80 47 36 31 29 28 26 26 24 23 23 16 14 12 11 11 10 8 8 16 32 35 39 22
51 44 48 49 49 45 45 49 50 50 51 50 47 45 46 46 44 36 26 37 53 49 42 36 33 29 26 26 24 26 21 17 24 29 30 30 23 16 12 22 24 43 33
14 13 12 12 11 11 11 12 13 16 22 26 30 30 31 33 35 42 47 41 36 51 53 44 43 33 28 28 30 26 33 34 33 34 37 34 27 18 26 24 28 31 41
12 12 12 12 10 8 7 7 8 8 9 10 10 8 8 8 10 16 28 39 48 51 62 67 56 45 32 29 30 26 26 35 36 32 37 39 34 27 34 24 34 28 33
12 11 11 12 12 11 10 9 8 7 7 6 5 6 5 5 5 6 8 12 31 50 69 85 83 59 42 30 29 29 25 26 37 34 35 41 41 30 29 39 40 40 35
8 9 9 10 12 12 13 12 10 9 8 7 6 6 5 5 4 4 4 5 8 16 37 62 87 88 58 51 29 28 28 26 27 35 32 37 38 32 30 25 22 45 49
8 9 11 14 16 18 18 15 13 12 11 11 11 8 6 5 4 5 4 4 5 6 8 28 57 89 91 76 38 28 28 27 27 29 31 32 34 31 31 28 23 25 31
9 16 22 21 21 21 21 20 18 15 16 14 12 11 12 8 5 3 3 4 6 7 7 8 23 58 67 82 48 34 30 29 26 28 30 30 30 30 31 36 36 31 28
13 19 20 18 16 15 16 20 22 20 20 20 18 15 12 10 7 4 3 3 6 7 8 9 9 18 64 88 86 71 33 30 28 24 27 30 29 31 32 37 42 40 38
13 20 19 17 16 16 19 21 21 22 21 19 17 14 10 7 5 4 4 3 4 6 7 9 9 11 66 68 78 92 60 32 29 25 25 27 28 29 34 36 42 45 43
21 20 20 19 23 25 28 27 25 22 19 16 14 12 10 6 4 4 4 3 4 4 5 5 7 9 11 78 96 85 89 63 31 26 24 26 25 26 30 34 37 49 50
23 22 22 26 28 33 32 30 26 23 21 17 11 6 3 3 4 4 3 3 3 3 4 4 4 6 10 15 34 95 96 91 45 26 25 27 28 28 27 31 36 44 53
28 28 33 32 36 39 36 30 26 21 15 6 3 2 2 6 7 8 9 8 10 9 3 3 4 4 5 9 14 30 89 93 95 51 36 36 33 30 28 28 32 40 51
39 43 41 50 46 44 36 26 18 6 2 2 6 6 7 10 14 14 13 10 9 9 11 10 5 4 4 7 9 23 97 96 97 81 46 48 36 34 30 31 31 37 43
51 53 61 52 45 20 7 5 3 7 11 11 19 17 15 19 26 26 22 18 13 14 13 14 11 8 5 9 6 9 16 82 97 97 53 66 47 39 35 33 32 39 41

GFSSE_500_rhum_150.txt.gz
RH
17 16 15 15 15 16 15 15 14 13 11 10 10 11 10 10 7 7 10 10 10 10 8 6 5 5 6 7 7 8 7 6 5 5 6 6 9 19 35 41 47 58 56
20 21 19 18 17 17 17 17 19 20 18 16 14 12 10 8 6 6 10 17 18 19 18 12 8 5 5 6 6 8 8 8 6 5 6 6 10 16 36 39 40 56 50
19 26 24 20 19 20 22 24 23 23 23 21 17 16 13 7 6 6 5 12 17 20 20 21 16 11 5 5 5 6 8 8 7 6 8 13 12 18 37 42 45 35 40
22 28 26 22 27 31 34 30 25 22 20 20 18 15 14 9 9 6 5 8 18 21 21 22 17 16 13 6 5 5 6 9 8 8 7 7 9 15 39 36 41 43 56
30 43 38 34 32 32 30 36 32 23 18 15 14 14 16 14 14 6 6 6 11 18 22 24 21 17 15 12 7 6 6 7 9 9 9 8 13 16 42 49 54 36 28
30 32 32 28 32 31 33 35 33 30 26 25 19 18 20 21 18 13 9 6 7 13 21 22 23 19 18 14 11 6 6 6 8 9 10 9 8 29 39 53 58 44 30
27 30 35 39 42 40 34 34 33 29 23 28 28 25 24 33 33 30 22 9 6 10 19 22 23 21 20 18 14 9 7 6 6 9 10 10 8 22 35 48 55 46 29
41 39 45 52 53 46 39 32 27 26 24 26 30 29 22 22 57 38 37 24 10 8 13 21 23 24 21 22 20 15 10 7 6 7 9 9 9 10 28 48 51 35 32
44 49 53 58 58 62 37 34 34 33 26 23 35 54 41 32 33 50 60 43 27 18 12 20 23 24 24 24 24 22 19 10 7 6 7 8 9 10 21 34 45 45 29
48 52 51 55 56 54 37 31 30 26 22 20 20 23 49 65 46 40 43 72 58 33 28 24 25 25 24 24 25 24 23 18 12 8 6 7 7 9 12 27 31 45 30
58 55 49 48 49 47 38 43 54 48 32 25 22 22 21 26 35 42 45 41 56 86 45 31 32 26 26 26 25 25 24 22 15 10 11 16 17 12 10 19 26 44 38
62 48 43 49 47 42 42 53 61 56 50 43 36 34 38 38 36 40 42 35 22 36 46 85 38 38 30 28 26 25 24 24 20 16 12 14 14 11 10 11 18 31 34
54 50 51 40 30 42 47 49 51 50 50 49 48 43 40 41 39 37 40 42 42 48 55 69 70 39 31 31 29 27 26 24 25 16 13 17 25 23 20 19 12 22 25
12 11 11 10 10 10 10 9 9 9 9 12 13 15 18 18 23 22 22 26 39 37 43 58 67 76 58 33 31 29 28 28 28 24 27 32 33 34 30 24 27 25 24
10 11 11 11 10 10 9 10 10 9 8 8 6 6 6 6 8 8 8 8 8 16 22 37 46 57 67 68 50 30 29 29 29 29 34 32 35 34 29 35 27 28 30
9 8 8 8 8 9 9 10 11 12 12 12 11 9 8 7 6 5 6 5 5 5 7 22 22 41 62 78 86 60 30 30 30 26 31 35 34 36 36 37 36 37 31
10 9 8 8 7 8 10 12 13 15 16 16 16 15 13 11 9 8 7 9 8 8 6 6 16 22 20 54 78 94 51 30 32 30 25 32 35 36 41 33 38 35 38
9 9 8 8 7 8 12 16 17 15 14 13 13 14 16 15 12 11 10 9 9 8 7 7 6 6 13 13 34 64 95 51 33 34 30 26 31 32 43 34 32 30 38
6 7 7 7 8 9 11 17 18 16 15 14 14 15 18 18 17 14 11 10 9 9 8 6 5 5 10 20 10 29 73 97 69 36 37 29 27 32 32 36 31 31 30
7 8 8 10 10 10 13 16 16 14 13 14 16 18 20 22 20 18 15 13 12 10 9 8 5 5 6 12 18 22 38 78 98 75 41 36 29 27 32 31 31 31 33
8 10 11 11 10 10 13 17 16 17 18 20 21 20 19 18 18 16 15 14 13 12 10 8 5 4 4 7 15 23 67 34 63 97 57 43 34 28 29 32 30 33 35
12 12 11 11 14 16 17 18 18 19 20 22 23 24 20 16 14 15 14 13 12 10 8 5 4 4 4 5 6 14 24 73 86 88 96 67 46 33 30 41 42 33 34
22 20 19 18 19 22 21 19 21 20 21 21 20 20 19 20 17 11 8 6 5 4 5 5 5 5 4 3 4 5 17 24 24 96 96 96 68 48 41 41 47 43 33
29 27 28 30 28 22 21 24 26 25 22 22 23 22 19 10 6 4 2 2 2 5 5 6 4 3 3 3 3 3 4 9 17 32 92 96 89 57 48 47 50 44 33
39 38 34 28 24 31 37 39 33 30 26 24 20 16 4 3 6 11 9 9 11 10 10 9 9 8 7 5 8 8 5 5 13 14 17 95 97 85 59 57 50 45 37
34 32 32 41 48 50 47 42 38 31 22 13 4 4 5 10 18 22 23 19 22 23 26 22 17 11 9 8 7 17 13 12 9 9 13 33 97 96 74 59 54 50 37

GFSSE_500_rhum_156.txt.gz
RH
21 28 24 23 18 14 14 16 18 18 21 21 20 18 18 19 18 15 10 6 8 12 17 16 15 11 8 6 5 5 6 6 7 7 6 6 6 6 9 14 31 52 80
24 23 36 40 26 11 17 27 24 23 23 21 20 22 20 20 19 17 15 11 11 9 21 15 17 19 17 13 8 5 5 6 6 8 8 6 8 10 11 12 30 45 51
29 19 17 17 17 17 23 27 24 22 22 24 24 30 25 14 13 13 13 14 11 6 7 15 19 19 18 18 17 13 7 5 5 6 8 8 12 21 15 11 26 41 54
12 11 12 12 16 28 28 27 25 21 21 25 26 28 33 23 18 16 13 14 15 10 6 8 16 21 22 22 18 17 14 9 6 5 7 14 32 23 26 17 32 47 55
14 16 16 20 22 25 26 22 18 17 15 15 14 16 28 31 22 33 52 39 27 17 13 7 10 22 24 24 21 18 15 12 8 6 6 16 41 15 25 30 28 41 48
19 20 23 23 24 27 27 23 18 16 17 18 16 14 18 26 22 21 24 25 40 34 23 21 8 13 25 24 24 21 19 16 10 7 6 15 46 10 17 40 27 34 47
22 22 23 24 29 31 31 31 30 25 24 26 22 20 22 20 18 30 37 27 21 46 38 27 11 8 14 24 24 24 21 21 18 12 7 34 18 9 11 32 29 29 43
25 25 28 30 29 28 27 27 31 39 39 36 31 28 27 28 24 23 46 45 30 28 51 53 37 16 8 14 22 24 23 22 23 23 16 11 7 8 9 18 27 30 33
21 23 22 23 26 26 29 36 39 42 42 43 46 38 29 28 24 21 24 54 68 55 41 40 65 59 28 13 15 20 22 24 24 23 24 20 8 7 8 9 10 14 24
26 26 26 27 30 33 37 39 38 40 41 47 46 39 33 31 30 28 46 41 57 61 61 56 46 53 85 57 20 21 23 24 24 25 24 24 17 10 9 8 8 12 14
33 33 34 36 39 44 50 51 45 43 44 41 41 37 33 43 50 50 47 47 45 54 50 52 51 37 45 54 72 47 26 28 26 27 25 24 24 25 9 7 8 10 10
45 44 42 46 43 46 50 50 51 43 48 48 48 48 45 34 23 22 27 31 37 42 46 50 55 50 44 34 51 77 66 35 30 28 28 26 25 25 19 12 17 21 15
47 44 48 38 11 12 22 27 29 15 10 10 14 12 10 9 8 7 7 7 7 7 7 8 16 40 66 65 44 50 91 81 48 37 29 28 28 31 25 14 15 15 11
49 51 50 12 10 9 8 8 8 8 8 8 8 8 9 10 12 14 15 15 15 16 15 11 7 6 16 46 84 70 61 98 94 55 35 30 30 27 29 19 24 28 30
36 30 11 10 9 8 7 8 8 8 8 7 7 8 9 9 10 11 12 12 12 12 12 13 15 14 10 8 15 59 79 54 75 96 78 50 35 30 30 32 31 34 33
15 13 12 10 8 9 10 10 9 9 10 9 8 7 7 7 7 7 9 9 9 10 10 12 15 14 15 15 10 9 16 79 61 54 82 80 69 38 29 30 35 34 35
12 14 14 14 13 12 11 10 9 8 8 9 9 9 8 8 8 8 8 8 8 9 9 8 8 13 15 15 16 14 14 18 66 85 35 39 60 90 40 30 30 36 37
18 10 9 10 11 11 10 8 8 8 7 7 8 9 9 8 8 10 9 8 9 9 8 7 9 8 8 12 14 16 15 16 33 69 91 28 24 68 85 40 31 31 40
6 6 7 8 8 8 7 7 7 7 6 6 7 8 8 8 8 10 10 9 10 10 12 12 11 10 8 8 13 17 17 16 13 38 63 89 38 21 64 86 63 32 29
8 7 6 6 6 6 6 6 6 6 7 7 8 8 9 9 10 10 10 11 11 12 14 14 12 10 9 8 8 12 16 18 16 14 39 58 76 54 14 32 86 66 32
31 30 27 23 21 18 15 15 14 13 12 12 12 14 14 13 12 14 15 14 14 14 14 13 11 10 8 10 11 14 15 16 16 16 11 34 62 75 61 26 21 76 76
27 27 28 29 33 41 33 27 28 29 30 30 29 27 25 23 20 19 17 16 15 15 13 10 8 8 8 12 10 12 13 15 15 16 14 10 28 44 62 53 33 40 90
33 33 34 35 35 34 32 31 31 31 31 30 29 27 25 23 21 19 18 18 17 14 10 8 8 9 9 12 13 13 13 12 15 14 13 11 9 10 62 99 55 58 67
31 30 30 29 29 30 31 31 30 29 28 25 23 23 22 21 20 20 21 20 17 14 11 13 14 14 12 11 10 11 11 10 10 10 10 10 11 9 15 68 97 90 100
25 25 25 25 25 25 27 27 25 24 24 24 24 22 23 25 27 31 31 27 19 17 12 6 5 4 3 3 3 3 3 3 3 4 4 5 15 17 19 27 33 89 96
25 26 26 26 27 29 28 29 32 35 38 43 47 45 39 34 32 28 21 15 7 3 6 9 7 7 10 10 14 11 5 4 3 4 4 3 4 9 10 14 16 23 76